Home   Weather   New York   Past weeks

Flag for USA Past Weather in New York, New York, USA — Yesterday and Last 2 Weeks

Now
64 °F

Sunny.


Feels Like: 64 °F
Forecast: 58 / 67 °F
Wind: No wind

Location: New York City - Central Park

Current Time: May 22, 2018 at 7:52:58 am

Latest Report: May 22, 2018 at 6:51 am


Visibility: 10 mi

Pressure: 30.14 "Hg

Humidity: 65%

Dew Point: 52 °F

Location of New YorkLocation

Past Weather in New York — Graph

°F

New York Temperature Yesterday

Maximum temperature yesterday: 78 °F (at 2:51 pm)
Minimum temperature yesterday: 58 °F (at 5:51 am)
Average temperature yesterday: 67 °F

High & Low Weather Summary for the Past Weeks

 TemperatureHumidityPressure
High88 °F (May 15, 3:51 pm)100% (May 17, 4:08 am)30.39 "Hg (May 17, 4:08 am)
Low50 °F (May 19, 4:51 am)20% (May 11, 5:51 pm)29.72 "Hg (May 15, 3:51 pm)
Average61 °F77%30.08 "Hg
* Reported May 7 5:51 am — May 22 5:51 am, New York. Weather by CustomWeather, © 2018

Note: Actual official high and low records may vary slightly from our data, if they occured in-between our weather recording intervals... More about our weather records

Advertising

New York Weather History for the Previous 24 Hours

Scroll right to see more
 ConditionsComfort  
Time TempWeatherWind HumidityBarometerVisibility
5:51 am
Tue, May 22
64 °FSunny.No wind63%30.14 "Hg10 mi
4:51 am64 °FClear.No wind58%30.15 "Hg10 mi
3:51 am65 °FClear.No wind52%30.15 "Hg10 mi
2:51 am64 °FClear.3 mph54%30.16 "Hg10 mi
1:51 am62 °FClear.3 mph58%30.15 "Hg10 mi
12:51 am64 °FClear.No wind52%30.16 "Hg10 mi
11:51 pm
Mon, May 21
64 °FClear.No wind52%30.15 "Hg10 mi
10:51 pm64 °FClear.8 mph56%30.15 "Hg10 mi
9:51 pm65 °FClear.No wind54%30.16 "Hg10 mi
8:51 pm66 °FClear.No wind49%30.15 "Hg10 mi
7:51 pm68 °FSunny.5 mph47%30.15 "Hg10 mi
6:51 pm70 °FSunny.5 mph47%30.14 "Hg10 mi
5:51 pm73 °FSunny.6 mph38%30.13 "Hg10 mi
4:51 pm73 °FSunny.No wind40%30.13 "Hg10 mi
3:51 pm74 °FSunny.6 mph41%30.13 "Hg10 mi
2:51 pm78 °FSunny.No wind32%30.15 "Hg10 mi
1:51 pm77 °FSunny.No wind30%30.17 "Hg10 mi
12:51 pm74 °FSunny.No wind33%30.19 "Hg10 mi
11:51 am74 °FSunny.5 mph35%30.20 "Hg10 mi
10:51 am69 °FSunny.6 mph42%30.20 "Hg10 mi
9:51 am67 °FSunny.7 mph49%30.20 "Hg9 mi
8:51 am65 °FSunny.No wind61%30.19 "Hg10 mi
7:51 am62 °FSunny.5 mph73%30.19 "Hg10 mi
Weather by CustomWeather, © 2018

See weather overview